Location: Coupvray
(48.8929°N, 2.7967°E)
Time: 08:47:44
(UTC+00:00)

ADEOS II - Pass Details

Date: 14 July 2020
Orbit: 799 x 801 km, 98.5° (Epoch: 14 August)

Event Time Altitude Azimuth Distance (km) Brightness Sun altitude
Rises 02:56:45 0° 10° (N) 3,323 6.4 -8.7°
Reaches altitude 10° 02:59:09 10° 5° (N) 2,388 5.4 -8.4°
Maximum altitude 03:04:12 49° 292° (WNW) 1,024 2.5 -7.8°
Drops below altitude 10° 03:09:14 10° 218° (SW) 2,371 3.9 -7.3°
Enters shadow 03:09:34 - 218° (SW) 2,493 4.0 -7.2°
